Time,TemperatureF,DewpointF,PressureIn,WindDirection,WindDirectionDegrees,WindSpeedMPH,WindSpeedGustMPH,Humidity,HourlyPrecipIn,Conditions,Clouds,dailyrainin,SoftwareType,DateUTC
2013-02-23 00:03:00,34.2,27.1,29.79,SW,231,11.0,19.0,75,0.00,,,0.00,Wunderground v.1.15,2013-02-23 08:03:00,
2013-02-23 00:08:00,34.0,26.6,29.79,SW,217,18.0,23.0,74,0.00,,,0.00,Wunderground v.1.15,2013-02-23 08:08:00,
2013-02-23 00:14:00,33.8,26.7,29.79,SSW,211,15.0,23.0,75,0.00,,,0.00,Wunderground v.1.15,2013-02-23 08:14:00,
2013-02-23 00:19:00,33.6,26.5,29.79,SW,228,14.0,17.0,75,0.00,,,0.00,Wunderground v.1.15,2013-02-23 08:19:00,
2013-02-23 00:25:00,33.4,26.6,29.79,WSW,238,19.0,19.0,76,0.00,,,0.00,Wunderground v.1.15,2013-02-23 08:25:00,
2013-02-23 00:30:00,33.2,26.5,29.80,SW,235,15.0,17.0,76,0.00,,,0.00,Wunderground v.1.15,2013-02-23 08:30:00,
2013-02-23 00:36:00,33.1,26.7,29.81,SW,231,18.0,18.0,77,0.00,,,0.00,Wunderground v.1.15,2013-02-23 08:36:00,
2013-02-23 00:42:00,33.0,26.6,29.81,WSW,238,14.0,22.0,77,0.00,,,0.00,Wunderground v.1.15,2013-02-23 08:42:00,
2013-02-23 00:48:00,32.8,26.4,29.81,South,188,14.0,22.0,77,0.00,,,0.00,Wunderground v.1.15,2013-02-23 08:48:00,
2013-02-23 00:53:00,32.8,26.4,29.82,WSW,242,9.0,13.0,77,0.00,,,0.00,Wunderground v.1.15,2013-02-23 08:53:00,
2013-02-23 00:59:00,32.9,26.2,29.82,WSW,257,8.0,16.0,76,0.00,,,0.00,Wunderground v.1.15,2013-02-23 08:59:00,
2013-02-23 01:04:00,32.8,26.4,29.82,WSW,246,12.0,18.0,77,0.00,,,0.00,Wunderground v.1.15,2013-02-23 09:04:00,
2013-02-23 01:10:00,32.7,26.3,29.83,WSW,251,8.0,11.0,77,0.00,,,0.00,Wunderground v.1.15,2013-02-23 09:10:00,
2013-02-23 01:16:00,32.5,26.1,29.82,SW,234,11.0,16.0,77,0.00,,,0.00,Wunderground v.1.15,2013-02-23 09:16:00,
2013-02-23 01:22:00,32.3,26.2,29.82,SW,219,13.0,13.0,78,0.00,,,0.00,Wunderground v.1.15,2013-02-23 09:22:00,
2013-02-23 01:27:00,32.3,26.2,29.82,SSW,207,11.0,15.0,78,0.00,,,0.00,Wunderground v.1.15,2013-02-23 09:27:00,
2013-02-23 01:33:00,32.4,26.0,29.83,SW,228,7.0,12.0,77,0.00,,,0.00,Wunderground v.1.15,2013-02-23 09:33:00,
2013-02-23 01:39:00,32.4,26.0,29.83,West,261,7.0,13.0,77,0.00,,,0.00,Wunderground v.1.15,2013-02-23 09:39:00,
2013-02-23 01:44:00,32.3,26.2,29.83,WSW,246,9.0,17.0,78,0.00,,,0.00,Wunderground v.1.15,2013-02-23 09:44:00,
2013-02-23 01:50:00,32.1,26.3,29.83,WSW,241,7.0,12.0,79,0.00,,,0.00,Wunderground v.1.15,2013-02-23 09:50:00,
2013-02-23 01:56:00,32.1,26.0,29.83,SW,225,11.0,18.0,78,0.00,,,0.00,Wunderground v.1.15,2013-02-23 09:56:00,
2013-02-23 02:01:00,31.9,25.8,29.83,West,265,9.0,13.0,78,0.00,,,0.00,Wunderground v.1.15,2013-02-23 10:01:00,
2013-02-23 02:06:00,32.0,25.9,29.83,WSW,258,12.0,25.0,78,0.00,,,0.00,Wunderground v.1.15,2013-02-23 10:06:00,
2013-02-23 02:11:00,31.8,25.7,29.83,WSW,251,18.0,18.0,78,0.00,,,0.00,Wunderground v.1.15,2013-02-23 10:11:00,
2013-02-23 02:16:00,31.8,25.7,29.84,WSW,258,7.0,22.0,78,0.00,,,0.00,Wunderground v.1.15,2013-02-23 10:16:00,
2013-02-23 02:21:00,31.7,25.6,29.84,SW,226,16.0,21.0,78,0.00,,,0.00,Wunderground v.1.15,2013-02-23 10:21:00,
2013-02-23 02:26:00,31.6,25.5,29.84,SW,230,10.0,23.0,78,0.00,,,0.00,Wunderground v.1.15,2013-02-23 10:26:00,
2013-02-23 02:31:00,31.4,25.3,29.84,SW,229,16.0,19.0,78,0.00,,,0.00,Wunderground v.1.15,2013-02-23 10:31:00,
2013-02-23 02:36:00,31.4,25.3,29.84,WSW,257,16.0,25.0,78,0.00,,,0.00,Wunderground v.1.15,2013-02-23 10:36:00,
2013-02-23 02:41:00,31.2,25.4,29.84,WSW,258,18.0,22.0,79,0.00,,,0.00,Wunderground v.1.15,2013-02-23 10:41:00,
2013-02-23 02:46:00,30.9,25.2,29.84,SW,215,12.0,26.0,79,0.00,,,0.00,Wunderground v.1.15,2013-02-23 10:46:00,
2013-02-23 02:51:00,30.9,25.2,29.85,WSW,242,24.0,28.0,79,0.00,,,0.00,Wunderground v.1.15,2013-02-23 10:51:00,
2013-02-23 02:57:00,30.6,25.2,29.84,SW,215,10.0,28.0,80,0.00,,,0.00,Wunderground v.1.15,2013-02-23 10:57:00,
2013-02-23 03:02:00,30.5,25.4,29.85,WSW,255,10.0,17.0,81,0.00,,,0.00,Wunderground v.1.15,2013-02-23 11:02:00,
2013-02-23 03:07:00,30.3,25.2,29.86,SW,229,13.0,21.0,81,0.00,,,0.00,Wunderground v.1.15,2013-02-23 11:07:00,
2013-02-23 03:12:00,30.1,25.0,29.86,WSW,238,8.0,16.0,81,0.00,,,0.00,Wunderground v.1.15,2013-02-23 11:12:00,
2013-02-23 03:17:00,30.0,25.2,29.86,SW,231,7.0,16.0,82,0.00,,,0.00,Wunderground v.1.15,2013-02-23 11:17:00,
2013-02-23 03:22:00,29.9,25.1,29.87,SW,233,7.0,14.0,82,0.00,,,0.00,Wunderground v.1.15,2013-02-23 11:22:00,
2013-02-23 03:27:00,29.9,25.1,29.87,SW,215,8.0,15.0,82,0.00,,,0.00,Wunderground v.1.15,2013-02-23 11:27:00,
2013-02-23 03:32:00,29.8,25.0,29.87,SW,222,13.0,13.0,82,0.00,,,0.00,Wunderground v.1.15,2013-02-23 11:32:00,
2013-02-23 03:37:00,29.9,24.8,29.87,WSW,246,18.0,18.0,81,0.00,,,0.00,Wunderground v.1.15,2013-02-23 11:37:00,
2013-02-23 03:42:00,29.8,24.7,29.87,SW,219,10.0,12.0,81,0.00,,,0.00,Wunderground v.1.15,2013-02-23 11:42:00,
2013-02-23 03:47:00,29.9,24.5,29.87,SSW,203,12.0,14.0,80,0.00,,,0.00,Wunderground v.1.15,2013-02-23 11:47:00,
2013-02-23 03:52:00,29.8,24.4,29.87,SSW,206,7.0,11.0,80,0.00,,,0.00,Wunderground v.1.15,2013-02-23 11:52:00,
2013-02-23 03:57:00,30.0,24.3,29.87,SW,216,12.0,17.0,79,0.00,,,0.00,Wunderground v.1.15,2013-02-23 11:57:00,
2013-02-23 04:02:00,30.3,24.3,29.88,SW,227,9.0,19.0,78,0.00,,,0.00,Wunderground v.1.15,2013-02-23 12:02:00,
2013-02-23 04:07:00,30.2,24.2,29.88,SW,217,14.0,19.0,78,0.00,,,0.00,Wunderground v.1.15,2013-02-23 12:07:00,
2013-02-23 04:12:00,30.2,24.2,29.88,SW,221,10.0,17.0,78,0.00,,,0.00,Wunderground v.1.15,2013-02-23 12:12:00,
2013-02-23 04:17:00,29.9,23.9,29.88,SW,217,13.0,17.0,78,0.00,,,0.00,Wunderground v.1.15,2013-02-23 12:17:00,
2013-02-23 04:22:00,30.0,24.0,29.88,SSW,209,9.0,14.0,78,0.00,,,0.00,Wunderground v.1.15,2013-02-23 12:22:00,
2013-02-23 04:27:00,29.8,24.1,29.89,SSW,211,13.0,14.0,79,0.00,,,0.00,Wunderground v.1.15,2013-02-23 12:27:00,
2013-02-23 04:32:00,29.8,24.1,29.89,SSW,209,10.0,13.0,79,0.00,,,0.00,Wunderground v.1.15,2013-02-23 12:32:00,
2013-02-23 04:37:00,29.7,24.0,29.89,SSW,213,9.0,14.0,79,0.00,,,0.00,Wunderground v.1.15,2013-02-23 12:37:00,
2013-02-23 04:42:00,29.4,24.0,29.90,SSW,211,7.0,11.0,80,0.00,,,0.00,Wunderground v.1.15,2013-02-23 12:42:00,
2013-02-23 04:48:00,29.4,24.0,29.90,SSW,196,8.0,12.0,80,0.00,,,0.00,Wunderground v.1.15,2013-02-23 12:48:00,
2013-02-23 04:53:00,29.3,24.2,29.90,SW,218,11.0,12.0,81,0.00,,,0.00,Wunderground v.1.15,2013-02-23 12:53:00,
2013-02-23 04:58:00,29.3,24.2,29.90,SW,223,8.0,14.0,81,0.00,,,0.00,Wunderground v.1.15,2013-02-23 12:58:00,
2013-02-23 05:04:00,29.6,24.2,29.91,SW,218,12.0,15.0,80,0.00,,,0.00,Wunderground v.1.15,2013-02-23 13:04:00,
2013-02-23 05:09:00,29.7,24.6,29.91,SW,217,16.0,17.0,81,0.00,,,0.00,Wunderground v.1.15,2013-02-23 13:09:00,
2013-02-23 05:14:00,29.8,24.4,29.92,SW,216,11.0,18.0,80,0.00,,,0.00,Wunderground v.1.15,2013-02-23 13:14:00,
2013-02-23 05:19:00,29.8,24.4,29.92,SW,225,10.0,18.0,80,0.00,,,0.00,Wunderground v.1.15,2013-02-23 13:19:00,
2013-02-23 05:24:00,29.6,24.5,29.92,SSW,213,11.0,17.0,81,0.00,,,0.00,Wunderground v.1.15,2013-02-23 13:24:00,
2013-02-23 05:29:00,29.6,24.8,29.93,SW,227,9.0,17.0,82,0.00,,,0.00,Wunderground v.1.15,2013-02-23 13:29:00,
2013-02-23 05:34:00,29.6,24.8,29.93,SW,232,9.0,13.0,82,0.00,,,0.00,Wunderground v.1.15,2013-02-23 13:34:00,
2013-02-23 05:39:00,29.6,24.8,29.94,SW,234,6.0,15.0,82,0.00,,,0.00,Wunderground v.1.15,2013-02-23 13:39:00,
2013-02-23 05:44:00,29.5,24.7,29.94,SSW,209,10.0,10.0,82,0.00,,,0.00,Wunderground v.1.15,2013-02-23 13:44:00,
2013-02-23 05:49:00,29.6,24.8,29.94,SW,217,9.0,12.0,82,0.00,,,0.00,Wunderground v.1.15,2013-02-23 13:49:00,
2013-02-23 05:54:00,29.5,24.7,29.94,SSW,206,11.0,12.0,82,0.00,,,0.00,Wunderground v.1.15,2013-02-23 13:54:00,
2013-02-23 05:59:00,29.4,24.6,29.95,SSW,212,10.0,14.0,82,0.00,,,0.00,Wunderground v.1.15,2013-02-23 13:59:00,
2013-02-23 06:04:00,29.4,24.9,29.95,SSW,208,12.0,13.0,83,0.00,,,0.00,Wunderground v.1.15,2013-02-23 14:04:00,
2013-02-23 06:09:00,29.5,25.0,29.95,SSW,208,13.0,16.0,83,0.00,,,0.00,Wunderground v.1.15,2013-02-23 14:09:00,
2013-02-23 06:14:00,29.4,24.9,29.95,SSW,210,14.0,15.0,83,0.00,,,0.00,Wunderground v.1.15,2013-02-23 14:14:00,
2013-02-23 06:19:00,29.4,24.9,29.95,South,188,14.0,17.0,83,0.00,,,0.00,Wunderground v.1.15,2013-02-23 14:19:00,
2013-02-23 06:24:00,29.3,25.1,29.95,SSW,209,12.0,18.0,84,0.00,,,0.00,Wunderground v.1.15,2013-02-23 14:24:00,
2013-02-23 06:29:00,29.4,24.9,29.95,SW,221,14.0,19.0,83,0.00,,,0.00,Wunderground v.1.15,2013-02-23 14:29:00,
2013-02-23 06:34:00,29.4,24.9,29.96,SSW,205,12.0,18.0,83,0.00,,,0.00,Wunderground v.1.15,2013-02-23 14:34:00,
2013-02-23 06:39:00,29.2,24.7,29.96,SSW,204,16.0,16.0,83,0.00,,,0.00,Wunderground v.1.15,2013-02-23 14:39:00,
2013-02-23 06:44:00,29.1,24.9,29.96,SSW,202,16.0,18.0,84,0.00,,,0.00,Wunderground v.1.15,2013-02-23 14:44:00,
2013-02-23 06:49:00,29.0,24.8,29.96,SSW,213,15.0,15.0,84,0.00,,,0.00,Wunderground v.1.15,2013-02-23 14:49:00,
2013-02-23 06:54:00,28.9,24.7,29.96,SSW,209,15.0,20.0,84,0.00,,,0.00,Wunderground v.1.15,2013-02-23 14:54:00,
2013-02-23 07:00:00,28.8,24.9,29.97,SW,215,17.0,17.0,85,0.00,,,0.00,Wunderground v.1.15,2013-02-23 15:00:00,
2013-02-23 07:05:00,28.7,24.8,29.97,SSW,207,12.0,19.0,85,0.00,,,0.00,Wunderground v.1.15,2013-02-23 15:05:00,
2013-02-23 07:10:00,28.6,24.7,29.98,SSW,195,13.0,15.0,85,0.00,,,0.00,Wunderground v.1.15,2013-02-23 15:10:00,
2013-02-23 07:15:00,28.6,24.7,29.98,SSW,210,12.0,18.0,85,0.00,,,0.00,Wunderground v.1.15,2013-02-23 15:15:00,
2013-02-23 07:20:00,28.6,24.7,29.98,SSW,210,15.0,16.0,85,0.00,,,0.00,Wunderground v.1.15,2013-02-23 15:20:00,
2013-02-23 07:25:00,28.5,24.6,29.99,SSW,202,13.0,16.0,85,0.00,,,0.00,Wunderground v.1.15,2013-02-23 15:25:00,
2013-02-23 07:30:00,28.6,24.9,29.99,SW,216,17.0,17.0,86,0.00,,,0.00,Wunderground v.1.15,2013-02-23 15:30:00,
2013-02-23 07:35:00,28.5,24.8,29.99,SSW,210,15.0,17.0,86,0.00,,,0.00,Wunderground v.1.15,2013-02-23 15:35:00,
2013-02-23 07:40:00,28.5,24.8,29.99,SSW,201,13.0,15.0,86,0.00,,,0.00,Wunderground v.1.15,2013-02-23 15:40:00,
2013-02-23 07:45:00,28.2,24.6,30.00,SW,216,12.0,16.0,86,0.00,,,0.00,Wunderground v.1.15,2013-02-23 15:45:00,
2013-02-23 07:50:00,28.1,24.7,30.00,SW,215,9.0,13.0,87,0.00,,,0.00,Wunderground v.1.15,2013-02-23 15:50:00,
2013-02-23 07:55:00,28.1,24.7,30.00,SSW,203,13.0,17.0,87,0.00,,,0.00,Wunderground v.1.15,2013-02-23 15:55:00,
2013-02-23 08:00:00,28.2,24.8,30.00,South,189,14.0,14.0,87,0.00,,,0.00,Wunderground v.1.15,2013-02-23 16:00:00,
2013-02-23 08:05:00,28.1,24.7,30.00,SSW,202,12.0,19.0,87,0.00,,,0.00,Wunderground v.1.15,2013-02-23 16:05:00,
2013-02-23 08:11:00,28.0,24.6,30.00,SW,216,11.0,13.0,87,0.00,,,0.00,Wunderground v.1.15,2013-02-23 16:11:00,
2013-02-23 08:16:00,28.2,24.8,30.01,SSW,200,14.0,16.0,87,0.00,,,0.00,Wunderground v.1.15,2013-02-23 16:16:00,
2013-02-23 08:21:00,28.6,25.2,30.02,SSW,211,14.0,15.0,87,0.00,,,0.00,Wunderground v.1.15,2013-02-23 16:21:00,
2013-02-23 08:26:00,28.9,25.5,30.02,SSW,202,14.0,15.0,87,0.00,,,0.00,Wunderground v.1.15,2013-02-23 16:26:00,
2013-02-23 08:31:00,29.0,25.6,30.02,SSW,209,11.0,13.0,87,0.00,,,0.00,Wunderground v.1.15,2013-02-23 16:31:00,
2013-02-23 08:36:00,29.3,25.6,30.03,South,184,15.0,15.0,86,0.00,,,0.00,Wunderground v.1.15,2013-02-23 16:36:00,
2013-02-23 08:41:00,29.4,25.7,30.03,SSW,207,9.0,15.0,86,0.00,,,0.00,Wunderground v.1.15,2013-02-23 16:41:00,
2013-02-23 08:46:00,29.6,25.9,30.03,SSW,199,10.0,15.0,86,0.00,,,0.00,Wunderground v.1.15,2013-02-23 16:46:00,
2013-02-23 08:51:00,29.8,25.8,30.04,SW,219,11.0,11.0,85,0.00,,,0.00,Wunderground v.1.15,2013-02-23 16:51:00,
2013-02-23 08:56:00,30.0,26.3,30.04,SSW,209,9.0,13.0,86,0.00,,,0.00,Wunderground v.1.15,2013-02-23 16:56:00,
2013-02-23 09:01:00,30.1,26.1,30.04,SW,214,9.0,13.0,85,0.00,,,0.00,Wunderground v.1.15,2013-02-23 17:01:00,
2013-02-23 09:06:00,30.2,25.9,30.04,SW,219,17.0,18.0,84,0.00,,,0.00,Wunderground v.1.15,2013-02-23 17:06:00,
2013-02-23 09:11:00,30.5,26.2,30.04,SW,220,14.0,16.0,84,0.00,,,0.00,Wunderground v.1.15,2013-02-23 17:11:00,
2013-02-23 09:16:00,30.6,26.3,30.05,SW,225,12.0,16.0,84,0.00,,,0.00,Wunderground v.1.15,2013-02-23 17:16:00,
2013-02-23 09:21:00,30.9,26.6,30.05,SW,224,14.0,14.0,84,0.00,,,0.00,Wunderground v.1.15,2013-02-23 17:21:00,
2013-02-23 09:26:00,31.2,26.6,30.05,SW,228,13.0,15.0,83,0.00,,,0.00,Wunderground v.1.15,2013-02-23 17:26:00,
2013-02-23 09:32:00,31.4,26.5,30.05,SW,226,11.0,16.0,82,0.00,,,0.00,Wunderground v.1.15,2013-02-23 17:32:00,
2013-02-23 09:37:00,31.6,26.4,30.06,SW,231,12.0,16.0,81,0.00,,,0.00,Wunderground v.1.15,2013-02-23 17:37:00,
2013-02-23 09:42:00,31.7,26.5,30.06,SW,229,10.0,12.0,81,0.00,,,0.00,Wunderground v.1.15,2013-02-23 17:42:00,
2013-02-23 09:47:00,32.1,26.9,30.06,SW,215,5.0,12.0,81,0.00,,,0.00,Wunderground v.1.15,2013-02-23 17:47:00,
2013-02-23 09:52:00,32.2,26.4,30.06,SW,217,7.0,12.0,79,0.00,,,0.00,Wunderground v.1.15,2013-02-23 17:52:00,
2013-02-23 09:57:00,32.5,27.0,30.07,SSW,211,8.0,14.0,80,0.00,,,0.00,Wunderground v.1.15,2013-02-23 17:57:00,
2013-02-23 10:02:00,32.5,27.0,30.07,SSW,196,7.0,10.0,80,0.00,,,0.00,Wunderground v.1.15,2013-02-23 18:02:00,
2013-02-23 10:07:00,32.5,27.3,30.07,SSW,211,12.0,16.0,81,0.00,,,0.00,Wunderground v.1.15,2013-02-23 18:07:00,
2013-02-23 10:12:00,32.4,26.9,30.07,SW,221,8.0,14.0,80,0.00,,,0.00,Wunderground v.1.15,2013-02-23 18:12:00,
2013-02-23 10:17:00,32.5,27.3,30.08,SW,221,12.0,15.0,81,0.00,,,0.00,Wunderground v.1.15,2013-02-23 18:17:00,
2013-02-23 10:22:00,32.6,27.1,30.08,SW,214,11.0,15.0,80,0.00,,,0.00,Wunderground v.1.15,2013-02-23 18:22:00,
2013-02-23 10:27:00,32.7,27.2,30.08,SW,232,10.0,15.0,80,0.00,,,0.00,Wunderground v.1.15,2013-02-23 18:27:00,
2013-02-23 10:32:00,32.8,27.3,30.08,SSW,213,15.0,17.0,80,0.00,,,0.00,Wunderground v.1.15,2013-02-23 18:32:00,
2013-02-23 10:37:00,32.8,27.3,30.08,SW,225,12.0,17.0,80,0.00,,,0.00,Wunderground v.1.15,2013-02-23 18:37:00,
2013-02-23 10:42:00,33.0,27.2,30.08,SSW,213,14.0,15.0,79,0.00,,,0.00,Wunderground v.1.15,2013-02-23 18:42:00,
2013-02-23 10:47:00,33.4,28.2,30.08,SW,229,7.0,15.0,81,0.00,,,0.00,Wunderground v.1.15,2013-02-23 18:47:00,
2013-02-23 10:52:00,33.5,27.7,30.08,SSW,204,9.0,14.0,79,0.00,,,0.00,Wunderground v.1.15,2013-02-23 18:52:00,
2013-02-23 10:57:00,34.0,28.5,30.08,SSW,201,13.0,14.0,80,0.00,,,0.00,Wunderground v.1.15,2013-02-23 18:57:00,
2013-02-23 11:02:00,33.7,27.6,30.08,SW,230,10.0,15.0,78,0.00,,,0.00,Wunderground v.1.15,2013-02-23 19:02:00,
2013-02-23 11:07:00,34.2,28.7,30.08,SSW,201,8.0,15.0,80,0.00,,,0.00,Wunderground v.1.15,2013-02-23 19:07:00,
2013-02-23 11:12:00,34.3,27.8,30.09,SSW,212,14.0,16.0,77,0.00,,,0.00,Wunderground v.1.15,2013-02-23 19:12:00,
2013-02-23 11:17:00,34.3,28.2,30.08,SSW,207,5.0,16.0,78,0.00,,,0.00,Wunderground v.1.15,2013-02-23 19:17:00,
2013-02-23 11:22:00,34.8,28.6,30.08,SW,223,9.0,13.0,78,0.00,,,0.00,Wunderground v.1.15,2013-02-23 19:22:00,
2013-02-23 11:27:00,34.8,28.3,30.09,WSW,239,11.0,14.0,77,0.00,,,0.00,Wunderground v.1.15,2013-02-23 19:27:00,
2013-02-23 11:32:00,34.7,27.9,30.09,SSW,196,9.0,16.0,76,0.00,,,0.00,Wunderground v.1.15,2013-02-23 19:32:00,
2013-02-23 11:37:00,34.8,28.3,30.09,SSW,207,11.0,16.0,77,0.00,,,0.00,Wunderground v.1.15,2013-02-23 19:37:00,
2013-02-23 11:42:00,35.1,28.6,30.09,SSW,211,7.0,12.0,77,0.00,,,0.00,Wunderground v.1.15,2013-02-23 19:42:00,
2013-02-23 11:47:00,35.4,28.6,30.09,SW,232,8.0,13.0,76,0.00,,,0.00,Wunderground v.1.15,2013-02-23 19:47:00,
2013-02-23 11:52:00,36.2,29.4,30.09,SSW,202,6.0,8.0,76,0.00,,,0.00,Wunderground v.1.15,2013-02-23 19:52:00,
2013-02-23 11:57:00,36.0,28.5,30.09,SW,229,9.0,16.0,74,0.00,,,0.00,Wunderground v.1.15,2013-02-23 19:57:00,
2013-02-23 12:02:00,36.0,28.2,30.09,SW,227,9.0,14.0,73,0.00,,,0.00,Wunderground v.1.15,2013-02-23 20:02:00,
2013-02-23 12:08:00,36.2,28.7,30.09,SSW,209,11.0,14.0,74,0.00,,,0.00,Wunderground v.1.15,2013-02-23 20:08:00,
2013-02-23 12:14:00,36.8,29.3,30.09,SW,219,11.0,12.0,74,0.00,,,0.00,Wunderground v.1.15,2013-02-23 20:14:00,
2013-02-23 12:19:00,36.9,29.4,30.09,SSW,199,7.0,14.0,74,0.00,,,0.00,Wunderground v.1.15,2013-02-23 20:19:00,
2013-02-23 12:24:00,37.0,28.5,30.09,SW,228,5.0,12.0,71,0.00,,,0.00,Wunderground v.1.15,2013-02-23 20:24:00,
2013-02-23 12:29:00,37.0,28.5,30.10,SSW,209,5.0,12.0,71,0.00,,,0.00,Wunderground v.1.15,2013-02-23 20:29:00,
2013-02-23 12:34:00,37.6,29.7,30.10,SW,215,7.0,10.0,73,0.00,,,0.00,Wunderground v.1.15,2013-02-23 20:34:00,
2013-02-23 12:39:00,37.7,29.5,30.09,SW,236,8.0,12.0,72,0.00,,,0.00,Wunderground v.1.15,2013-02-23 20:39:00,
2013-02-23 12:44:00,38.0,29.4,30.09,SW,227,8.0,13.0,71,0.00,,,0.00,Wunderground v.1.15,2013-02-23 20:44:00,
2013-02-23 12:49:00,38.1,29.5,30.10,SSW,213,7.0,13.0,71,0.00,,,0.00,Wunderground v.1.15,2013-02-23 20:49:00,
2013-02-23 12:54:00,38.3,28.7,30.10,WSW,239,9.0,12.0,68,0.00,,,0.00,Wunderground v.1.15,2013-02-23 20:54:00,
2013-02-23 12:59:00,38.2,28.2,30.10,SW,235,8.0,12.0,67,0.00,,,0.00,Wunderground v.1.15,2013-02-23 20:59:00,
2013-02-23 13:04:00,38.1,27.7,30.10,WSW,254,10.0,15.0,66,0.00,,,0.00,Wunderground v.1.15,2013-02-23 21:04:00,
2013-02-23 13:09:00,38.3,27.9,30.10,SW,232,8.0,15.0,66,0.00,,,0.00,Wunderground v.1.15,2013-02-23 21:09:00,
2013-02-23 13:14:00,38.4,28.0,30.10,SW,221,11.0,13.0,66,0.00,,,0.00,Wunderground v.1.15,2013-02-23 21:14:00,
2013-02-23 13:19:00,38.6,28.2,30.10,WSW,247,12.0,14.0,66,0.00,,,0.00,Wunderground v.1.15,2013-02-23 21:19:00,
2013-02-23 13:24:00,38.8,28.8,30.11,SW,234,7.0,13.0,67,0.00,,,0.00,Wunderground v.1.15,2013-02-23 21:24:00,
2013-02-23 13:29:00,38.9,28.5,30.11,SW,221,10.0,17.0,66,0.00,,,0.00,Wunderground v.1.15,2013-02-23 21:29:00,
2013-02-23 13:34:00,39.1,28.7,30.11,WSW,245,8.0,11.0,66,0.00,,,0.00,Wunderground v.1.15,2013-02-23 21:34:00,
2013-02-23 13:39:00,39.0,28.6,30.11,WSW,248,8.0,13.0,66,0.00,,,0.00,Wunderground v.1.15,2013-02-23 21:39:00,
2013-02-23 13:44:00,38.9,27.8,30.11,WSW,240,3.0,14.0,64,0.00,,,0.00,Wunderground v.1.15,2013-02-23 21:44:00,
2013-02-23 13:49:00,39.2,28.4,30.11,WSW,238,7.0,8.0,65,0.00,,,0.00,Wunderground v.1.15,2013-02-23 21:49:00,
2013-02-23 13:54:00,39.4,28.6,30.11,SSW,202,11.0,13.0,65,0.00,,,0.00,Wunderground v.1.15,2013-02-23 21:54:00,
2013-02-23 13:59:00,39.4,28.6,30.11,SSW,210,7.0,9.0,65,0.00,,,0.00,Wunderground v.1.15,2013-02-23 21:59:00,
2013-02-23 14:04:00,39.5,28.3,30.11,SSW,202,8.0,12.0,64,0.00,,,0.00,Wunderground v.1.15,2013-02-23 22:04:00,
2013-02-23 14:10:00,39.8,28.6,30.12,SSW,213,7.0,8.0,64,0.00,,,0.00,Wunderground v.1.15,2013-02-23 22:10:00,
2013-02-23 14:15:00,39.8,28.6,30.12,SW,214,8.0,10.0,64,0.00,,,0.00,Wunderground v.1.15,2013-02-23 22:15:00,
2013-02-23 14:20:00,40.0,28.4,30.12,SW,214,7.0,10.0,63,0.00,,,0.00,Wunderground v.1.15,2013-02-23 22:20:00,
2013-02-23 14:25:00,40.2,27.8,30.12,SW,221,6.0,10.0,61,0.00,,,0.00,Wunderground v.1.15,2013-02-23 22:25:00,
2013-02-23 14:30:00,40.4,28.4,30.13,WSW,239,6.0,13.0,62,0.00,,,0.00,Wunderground v.1.15,2013-02-23 22:30:00,
2013-02-23 14:35:00,40.4,27.6,30.13,SW,231,7.0,13.0,60,0.00,,,0.00,Wunderground v.1.15,2013-02-23 22:35:00,
2013-02-23 14:40:00,40.5,28.1,30.13,SSW,213,6.0,8.0,61,0.00,,,0.00,Wunderground v.1.15,2013-02-23 22:40:00,
2013-02-23 14:45:00,40.6,28.2,30.13,SW,214,6.0,11.0,61,0.00,,,0.00,Wunderground v.1.15,2013-02-23 22:45:00,
2013-02-23 14:50:00,40.5,27.7,30.13,SSW,209,6.0,8.0,60,0.00,,,0.00,Wunderground v.1.15,2013-02-23 22:50:00,
2013-02-23 14:55:00,40.2,27.0,30.13,SW,225,5.0,10.0,59,0.00,,,0.00,Wunderground v.1.15,2013-02-23 22:55:00,
2013-02-23 15:00:00,40.1,27.7,30.13,WSW,238,2.0,8.0,61,0.00,,,0.00,Wunderground v.1.15,2013-02-23 23:00:00,
2013-02-23 15:05:00,40.0,28.4,30.13,SW,226,4.0,8.0,63,0.00,,,0.00,Wunderground v.1.15,2013-02-23 23:05:00,
2013-02-23 15:10:00,40.1,27.3,30.13,SW,218,7.0,7.0,60,0.00,,,0.00,Wunderground v.1.15,2013-02-23 23:10:00,
2013-02-23 15:15:00,40.2,26.6,30.14,SW,235,5.0,9.0,58,0.00,,,0.00,Wunderground v.1.15,2013-02-23 23:15:00,
2013-02-23 15:20:00,40.1,26.5,30.14,SW,229,3.0,6.0,58,0.00,,,0.00,Wunderground v.1.15,2013-02-23 23:20:00,
2013-02-23 15:25:00,40.6,26.1,30.14,WSW,238,4.0,8.0,56,0.00,,,0.00,Wunderground v.1.15,2013-02-23 23:25:00,
2013-02-23 15:31:00,40.9,24.1,30.14,SW,236,0.0,5.0,51,0.00,,,0.00,Wunderground v.1.15,2013-02-23 23:31:00,
2013-02-23 15:36:00,41.5,23.7,30.14,SW,217,4.0,9.0,49,0.00,,,0.00,Wunderground v.1.15,2013-02-23 23:36:00,
2013-02-23 15:41:00,41.9,25.1,30.14,SW,216,7.0,7.0,51,0.00,,,0.00,Wunderground v.1.15,2013-02-23 23:41:00,
2013-02-23 15:46:00,41.6,23.8,30.15,WSW,240,9.0,12.0,49,0.00,,,0.00,Wunderground v.1.15,2013-02-23 23:46:00,
2013-02-23 15:51:00,41.5,23.7,30.15,SW,220,7.0,11.0,49,0.00,,,0.00,Wunderground v.1.15,2013-02-23 23:51:00,
2013-02-23 15:56:00,41.5,23.7,30.15,WSW,238,10.0,15.0,49,0.00,,,0.00,Wunderground v.1.15,2013-02-23 23:56:00,
2013-02-23 16:01:00,41.3,23.1,30.16,WSW,247,12.0,13.0,48,0.00,,,0.00,Wunderground v.1.15,2013-02-24 00:01:00,
2013-02-23 16:06:00,40.7,23.5,30.16,SW,232,9.0,13.0,50,0.00,,,0.00,Wunderground v.1.15,2013-02-24 00:06:00,
2013-02-23 16:11:00,40.2,24.0,30.16,SW,236,10.0,10.0,52,0.00,,,0.00,Wunderground v.1.15,2013-02-24 00:11:00,
2013-02-23 16:16:00,39.9,23.7,30.16,SW,229,11.0,13.0,52,0.00,,,0.00,Wunderground v.1.15,2013-02-24 00:16:00,
2013-02-23 16:21:00,39.7,23.5,30.16,SW,219,8.0,10.0,52,0.00,,,0.00,Wunderground v.1.15,2013-02-24 00:21:00,
2013-02-23 16:26:00,39.7,24.0,30.17,SW,224,5.0,11.0,53,0.00,,,0.00,Wunderground v.1.15,2013-02-24 00:26:00,
2013-02-23 16:31:00,39.6,23.9,30.17,SW,224,5.0,10.0,53,0.00,,,0.00,Wunderground v.1.15,2013-02-24 00:31:00,
2013-02-23 16:36:00,39.3,24.5,30.17,SSW,207,7.0,10.0,55,0.00,,,0.00,Wunderground v.1.15,2013-02-24 00:36:00,
2013-02-23 16:41:00,39.1,24.7,30.18,SW,231,5.0,9.0,56,0.00,,,0.00,Wunderground v.1.15,2013-02-24 00:41:00,
2013-02-23 16:46:00,39.1,26.0,30.18,West,271,6.0,11.0,59,0.00,,,0.00,Wunderground v.1.15,2013-02-24 00:46:00,
2013-02-23 16:51:00,39.1,26.8,30.18,West,277,6.0,11.0,61,0.00,,,0.00,Wunderground v.1.15,2013-02-24 00:51:00,
2013-02-23 16:56:00,39.2,27.7,30.19,West,260,6.0,11.0,63,0.00,,,0.00,Wunderground v.1.15,2013-02-24 00:56:00,
2013-02-23 17:01:00,39.0,27.8,30.19,West,259,5.0,8.0,64,0.00,,,0.00,Wunderground v.1.15,2013-02-24 01:01:00,
2013-02-23 17:06:00,38.7,27.9,30.19,West,266,6.0,10.0,65,0.00,,,0.00,Wunderground v.1.15,2013-02-24 01:06:00,
2013-02-23 17:11:00,38.4,28.0,30.20,WNW,295,10.0,10.0,66,0.00,,,0.00,Wunderground v.1.15,2013-02-24 01:11:00,
2013-02-23 17:16:00,38.1,28.8,30.20,West,274,10.0,17.0,69,0.00,,,0.00,Wunderground v.1.15,2013-02-24 01:16:00,
2013-02-23 17:21:00,37.1,29.6,30.20,West,277,5.0,9.0,74,0.00,,,0.00,Wunderground v.1.15,2013-02-24 01:21:00,
2013-02-23 17:26:00,36.8,29.6,30.20,West,270,0.0,9.0,75,0.00,,,0.00,Wunderground v.1.15,2013-02-24 01:26:00,
2013-02-23 17:31:00,36.7,29.5,30.19,West,270,0.0,2.0,75,0.00,,,0.00,Wunderground v.1.15,2013-02-24 01:31:00,
2013-02-23 17:37:00,36.6,29.4,30.20,West,270,0.0,2.0,75,0.00,,,0.00,Wunderground v.1.15,2013-02-24 01:37:00,
2013-02-23 17:42:00,36.5,29.7,30.20,West,270,0.0,0.0,76,0.00,,,0.00,Wunderground v.1.15,2013-02-24 01:42:00,
2013-02-23 17:47:00,36.4,28.9,30.20,West,270,0.0,0.0,74,0.00,,,0.00,Wunderground v.1.15,2013-02-24 01:47:00,
2013-02-23 17:52:00,36.4,28.9,30.21,West,270,0.0,1.0,74,0.00,,,0.00,Wunderground v.1.15,2013-02-24 01:52:00,
2013-02-23 17:57:00,36.6,28.4,30.21,West,270,0.0,1.0,72,0.00,,,0.00,Wunderground v.1.15,2013-02-24 01:57:00,
2013-02-23 18:02:00,36.9,28.0,30.20,West,270,2.0,2.0,70,0.00,,,0.00,Wunderground v.1.15,2013-02-24 02:02:00,
2013-02-23 18:07:00,37.2,28.0,30.20,West,270,1.0,2.0,69,0.00,,,0.00,Wunderground v.1.15,2013-02-24 02:07:00,
2013-02-23 18:12:00,37.3,28.1,30.21,West,270,0.0,2.0,69,0.00,,,0.00,Wunderground v.1.15,2013-02-24 02:12:00,
2013-02-23 18:17:00,37.2,28.3,30.21,West,270,0.0,2.0,70,0.00,,,0.00,Wunderground v.1.15,2013-02-24 02:17:00,
2013-02-23 18:22:00,37.2,27.6,30.21,West,270,0.0,0.0,68,0.00,,,0.00,Wunderground v.1.15,2013-02-24 02:22:00,
2013-02-23 18:27:00,37.3,27.7,30.22,West,270,0.0,0.0,68,0.00,,,0.00,Wunderground v.1.15,2013-02-24 02:27:00,
2013-02-23 18:32:00,37.3,27.7,30.22,West,270,0.0,0.0,68,0.00,,,0.00,Wunderground v.1.15,2013-02-24 02:32:00,
2013-02-23 18:37:00,37.0,28.1,30.22,West,270,2.0,2.0,70,0.00,,,0.00,Wunderground v.1.15,2013-02-24 02:37:00,
2013-02-23 18:42:00,36.6,28.4,30.22,West,270,4.0,4.0,72,0.00,,,0.00,Wunderground v.1.15,2013-02-24 02:42:00,
2013-02-23 18:47:00,36.1,28.3,30.22,SW,214,4.0,6.0,73,0.00,,,0.00,Wunderground v.1.15,2013-02-24 02:47:00,
2013-02-23 18:52:00,35.7,28.2,30.23,SW,214,5.0,6.0,74,0.00,,,0.00,Wunderground v.1.15,2013-02-24 02:52:00,
2013-02-23 18:57:00,35.4,28.3,30.23,SW,214,4.0,6.0,75,0.00,,,0.00,Wunderground v.1.15,2013-02-24 02:57:00,
2013-02-23 19:02:00,35.5,28.0,30.23,SW,214,3.0,5.0,74,0.00,,,0.00,Wunderground v.1.15,2013-02-24 03:02:00,
2013-02-23 19:07:00,35.7,27.9,30.24,SW,214,2.0,5.0,73,0.00,,,0.00,Wunderground v.1.15,2013-02-24 03:07:00,
2013-02-23 19:12:00,35.6,27.8,30.24,SW,214,0.0,3.0,73,0.00,,,0.00,Wunderground v.1.15,2013-02-24 03:12:00,
2013-02-23 19:17:00,35.3,27.8,30.24,SW,214,0.0,3.0,74,0.00,,,0.00,Wunderground v.1.15,2013-02-24 03:17:00,
2013-02-23 19:22:00,35.1,28.0,30.25,SW,214,0.0,0.0,75,0.00,,,0.00,Wunderground v.1.15,2013-02-24 03:22:00,
2013-02-23 19:27:00,35.0,27.9,30.25,SW,214,0.0,0.0,75,0.00,,,0.00,Wunderground v.1.15,2013-02-24 03:27:00,
2013-02-23 19:32:00,34.7,27.6,30.25,SW,214,0.0,0.0,75,0.00,,,0.00,Wunderground v.1.15,2013-02-24 03:32:00,
2013-02-23 19:38:00,34.5,28.3,30.25,SW,214,2.0,3.0,78,0.00,,,0.00,Wunderground v.1.15,2013-02-24 03:38:00,
2013-02-23 19:43:00,34.5,28.7,30.25,SW,214,0.0,2.0,79,0.00,,,0.00,Wunderground v.1.15,2013-02-24 03:43:00,
2013-02-23 19:48:00,34.3,28.8,30.25,SW,214,2.0,3.0,80,0.00,,,0.00,Wunderground v.1.15,2013-02-24 03:48:00,
2013-02-23 19:53:00,34.3,28.8,30.25,SW,214,4.0,4.0,80,0.00,,,0.00,Wunderground v.1.15,2013-02-24 03:53:00,
2013-02-23 19:58:00,34.5,28.7,30.25,SW,214,5.0,6.0,79,0.00,,,0.00,Wunderground v.1.15,2013-02-24 03:58:00,
2013-02-23 20:03:00,35.0,28.5,30.25,SW,214,4.0,6.0,77,0.00,,,0.00,Wunderground v.1.15,2013-02-24 04:03:00,
2013-02-23 20:08:00,35.4,28.6,30.25,SW,214,3.0,6.0,76,0.00,,,0.00,Wunderground v.1.15,2013-02-24 04:08:00,
2013-02-23 20:14:00,35.4,28.6,30.25,SW,214,4.0,4.0,76,0.00,,,0.00,Wunderground v.1.15,2013-02-24 04:14:00,
2013-02-23 20:19:00,34.8,28.6,30.25,SSE,155,3.0,6.0,78,0.00,,,0.00,Wunderground v.1.15,2013-02-24 04:19:00,
2013-02-23 20:24:00,34.2,28.7,30.26,SSE,155,0.0,5.0,80,0.00,,,0.00,Wunderground v.1.15,2013-02-24 04:24:00,
2013-02-23 20:29:00,33.7,28.2,30.26,SSE,155,0.0,5.0,80,0.00,,,0.00,Wunderground v.1.15,2013-02-24 04:29:00,
2013-02-23 20:34:00,33.3,28.1,30.26,SSE,155,1.0,2.0,81,0.00,,,0.00,Wunderground v.1.15,2013-02-24 04:34:00,
2013-02-23 20:39:00,33.2,28.3,30.26,SSE,155,1.0,2.0,82,0.00,,,0.00,Wunderground v.1.15,2013-02-24 04:39:00,
2013-02-23 20:44:00,33.1,28.5,30.26,SSE,155,0.0,1.0,83,0.00,,,0.00,Wunderground v.1.15,2013-02-24 04:44:00,
2013-02-23 20:49:00,33.0,28.1,30.27,SSE,155,0.0,1.0,82,0.00,,,0.00,Wunderground v.1.15,2013-02-24 04:49:00,
2013-02-23 20:54:00,32.7,28.1,30.27,SSE,155,0.0,0.0,83,0.00,,,0.00,Wunderground v.1.15,2013-02-24 04:54:00,
2013-02-23 20:59:00,32.5,28.2,30.28,SSE,155,0.0,0.0,84,0.00,,,0.00,Wunderground v.1.15,2013-02-24 04:59:00,
2013-02-23 21:00:00,32.5,28.2,30.28,SSE,155,0.0,0.0,84,0.00,,,0.00,Wunderground v.1.15,2013-02-24 05:00:00,
2013-02-23 21:05:00,32.7,28.7,30.28,SSE,155,1.0,2.0,85,0.00,,,0.00,Wunderground v.1.15,2013-02-24 05:05:00,
2013-02-23 21:10:00,32.9,28.6,30.28,SSE,155,0.0,1.0,84,0.00,,,0.00,Wunderground v.1.15,2013-02-24 05:10:00,
2013-02-23 21:16:00,33.4,28.8,30.28,SSE,155,3.0,3.0,83,0.00,,,0.00,Wunderground v.1.15,2013-02-24 05:16:00,
2013-02-23 21:21:00,33.8,28.9,30.29,SSE,155,3.0,3.0,82,0.00,,,0.00,Wunderground v.1.15,2013-02-24 05:21:00,
2013-02-23 21:26:00,33.9,28.7,30.29,SSE,155,2.0,3.0,81,0.00,,,0.00,Wunderground v.1.15,2013-02-24 05:26:00,
2013-02-23 21:31:00,33.8,28.6,30.28,SSE,155,3.0,4.0,81,0.00,,,0.00,Wunderground v.1.15,2013-02-24 05:31:00,
2013-02-23 21:36:00,33.6,28.1,30.29,SSE,155,4.0,5.0,80,0.00,,,0.00,Wunderground v.1.15,2013-02-24 05:36:00,
2013-02-23 21:41:00,33.4,28.2,30.29,SSE,155,5.0,5.0,81,0.00,,,0.00,Wunderground v.1.15,2013-02-24 05:41:00,
2013-02-23 21:46:00,33.1,27.6,30.29,South,190,6.0,6.0,80,0.00,,,0.00,Wunderground v.1.15,2013-02-24 05:46:00,
2013-02-23 21:51:00,32.9,27.1,30.29,SSW,198,6.0,7.0,79,0.00,,,0.00,Wunderground v.1.15,2013-02-24 05:51:00,
2013-02-23 21:56:00,32.5,27.0,30.29,SSW,198,4.0,7.0,80,0.00,,,0.00,Wunderground v.1.15,2013-02-24 05:56:00,
2013-02-23 22:01:00,31.9,26.7,30.30,SSW,198,0.0,5.0,81,0.00,,,0.00,Wunderground v.1.15,2013-02-24 06:01:00,
2013-02-23 22:06:00,31.3,26.4,30.30,SSW,198,1.0,5.0,82,0.00,,,0.00,Wunderground v.1.15,2013-02-24 06:06:00,
2013-02-23 22:11:00,31.0,26.7,30.30,SSW,198,0.0,1.0,84,0.00,,,0.00,Wunderground v.1.15,2013-02-24 06:11:00,
2013-02-23 22:16:00,30.8,26.5,30.30,SSW,198,2.0,2.0,84,0.00,,,0.00,Wunderground v.1.15,2013-02-24 06:16:00,
2013-02-23 22:21:00,31.0,26.4,30.30,SSW,198,4.0,4.0,83,0.00,,,0.00,Wunderground v.1.15,2013-02-24 06:21:00,
2013-02-23 22:26:00,31.2,26.0,30.30,SSW,198,2.0,4.0,81,0.00,,,0.00,Wunderground v.1.15,2013-02-24 06:26:00,
2013-02-23 22:31:00,31.2,26.0,30.30,SSW,198,0.0,2.0,81,0.00,,,0.00,Wunderground v.1.15,2013-02-24 06:31:00,
2013-02-23 22:36:00,31.1,26.0,30.30,SSW,198,2.0,4.0,81,0.00,,,0.00,Wunderground v.1.15,2013-02-24 06:36:00,
2013-02-23 22:42:00,30.9,25.8,30.30,SSW,198,4.0,5.0,81,0.00,,,0.00,Wunderground v.1.15,2013-02-24 06:42:00,
2013-02-23 22:47:00,30.9,25.8,30.30,SSE,161,7.0,7.0,81,0.00,,,0.00,Wunderground v.1.15,2013-02-24 06:47:00,
2013-02-23 22:52:00,30.6,25.8,30.30,SSE,165,7.0,7.0,82,0.00,,,0.00,Wunderground v.1.15,2013-02-24 06:52:00,
2013-02-23 22:57:00,30.5,26.5,30.30,SSE,159,6.0,8.0,85,0.00,,,0.00,Wunderground v.1.15,2013-02-24 06:57:00,
2013-02-23 23:02:00,30.3,26.6,30.30,SSE,156,1.0,6.0,86,0.00,,,0.00,Wunderground v.1.15,2013-02-24 07:02:00,
2013-02-23 23:07:00,30.1,26.7,30.30,SSE,156,2.0,6.0,87,0.00,,,0.00,Wunderground v.1.15,2013-02-24 07:07:00,
2013-02-23 23:12:00,30.2,27.1,30.30,SSE,156,3.0,5.0,88,0.00,,,0.00,Wunderground v.1.15,2013-02-24 07:12:00,
2013-02-23 23:17:00,30.5,27.4,30.30,SSE,156,6.0,7.0,88,0.00,,,0.00,Wunderground v.1.15,2013-02-24 07:17:00,
2013-02-23 23:22:00,30.6,27.5,30.30,SSE,165,6.0,7.0,88,0.00,,,0.00,Wunderground v.1.15,2013-02-24 07:22:00,
2013-02-23 23:27:00,30.6,27.2,30.30,SSE,165,5.0,7.0,87,0.00,,,0.00,Wunderground v.1.15,2013-02-24 07:27:00,
2013-02-23 23:32:00,30.4,27.0,30.31,SSE,165,3.0,6.0,87,0.00,,,0.00,Wunderground v.1.15,2013-02-24 07:32:00,
2013-02-23 23:37:00,30.1,27.0,30.31,SSE,165,6.0,7.0,88,0.00,,,0.00,Wunderground v.1.15,2013-02-24 07:37:00,
2013-02-23 23:42:00,30.0,27.2,30.31,SSE,165,4.0,6.0,89,0.00,,,0.00,Wunderground v.1.15,2013-02-24 07:42:00,
2013-02-23 23:47:00,29.8,27.0,30.31,SSE,165,3.0,6.0,89,0.00,,,0.00,Wunderground v.1.15,2013-02-24 07:47:00,
2013-02-23 23:52:00,29.6,26.8,30.32,SSE,165,4.0,4.0,89,0.00,,,0.00,Wunderground v.1.15,2013-02-24 07:52:00,
2013-02-23 23:57:00,29.3,26.5,30.32,South,181,7.0,10.0,89,0.00,,,0.00,Wunderground v.1.15,2013-02-24 07:57:00,